date,time,water_lv
2016-12-01,00:00:00,2.26
2016-12-01,00:10:00,2.29
2016-12-01,00:20:00,2.32
2016-12-01,00:30:00,2.35
2016-12-01,00:40:00,2.38
2016-12-01,00:50:00,2.42
2016-12-01,01:00:00,2.46
2016-12-01,01:10:00,2.5
2016-12-01,01:20:00,2.53
2016-12-01,01:30:00,2.58
2016-12-01,01:40:00,2.62
2016-12-01,01:50:00,2.66
2016-12-01,02:00:00,2.71
2016-12-01,02:10:00,2.75
2016-12-01,02:20:00,2.8
2016-12-01,02:30:00,2.84
2016-12-01,02:40:00,2.88
2016-12-01,02:50:00,2.92
2016-12-01,03:00:00,2.96
2016-12-01,03:10:00,3
2016-12-01,03:20:00,3.03
2016-12-01,03:30:00,3.06
2016-12-01,03:40:00,3.1
2016-12-01,03:50:00,3.12
2016-12-01,04:00:00,3.14
2016-12-01,04:10:00,3.17
2016-12-01,04:20:00,3.19
2016-12-01,04:30:00,3.2
2016-12-01,04:40:00,3.21
2016-12-01,04:50:00,3.23
2016-12-01,05:00:00,3.24
2016-12-01,05:10:00,3.25
2016-12-01,05:20:00,3.25
2016-12-01,05:30:00,3.25
2016-12-01,05:40:00,3.26
2016-12-01,05:50:00,3.26
2016-12-01,06:00:00,3.26
2016-12-01,06:10:00,3.25
2016-12-01,06:20:00,3.25
2016-12-01,06:30:00,3.25
2016-12-01,06:40:00,3.24
2016-12-01,06:50:00,3.23
2016-12-01,07:00:00,3.23
2016-12-01,07:10:00,3.22
2016-12-01,07:20:00,3.21
2016-12-01,07:30:00,3.2
2016-12-01,07:40:00,3.18
2016-12-01,07:50:00,3.18
2016-12-01,08:00:00,3.17
2016-12-01,08:10:00,3.15
2016-12-01,08:20:00,3.14
2016-12-01,08:30:00,3.13
2016-12-01,08:40:00,3.11
2016-12-01,08:50:00,3.1
2016-12-01,09:00:00,3.08
2016-12-01,09:10:00,3.07
2016-12-01,09:20:00,3.05
2016-12-01,09:30:00,3.04
2016-12-01,09:40:00,3.02
2016-12-01,09:50:00,3.01
2016-12-01,10:00:00,2.99
2016-12-01,10:10:00,2.98
2016-12-01,10:20:00,2.96
2016-12-01,10:30:00,2.95
2016-12-01,10:40:00,2.93
2016-12-01,10:50:00,2.91
2016-12-01,11:00:00,2.9
2016-12-01,11:10:00,2.88
2016-12-01,11:20:00,2.87
2016-12-01,11:30:00,2.86
2016-12-01,11:40:00,2.84
2016-12-01,11:50:00,2.82
2016-12-01,12:00:00,2.81
2016-12-01,12:10:00,2.79
2016-12-01,12:20:00,2.78
2016-12-01,12:30:00,2.76
2016-12-01,12:40:00,2.74
2016-12-01,12:50:00,2.73
2016-12-01,13:00:00,2.72
2016-12-01,13:10:00,2.71
2016-12-01,13:20:00,2.69
2016-12-01,13:30:00,2.67
2016-12-01,13:40:00,2.67
2016-12-01,13:50:00,2.65
2016-12-01,14:00:00,2.63
2016-12-01,14:10:00,2.62
2016-12-01,14:20:00,2.61
2016-12-01,14:30:00,2.6
2016-12-01,14:40:00,2.59
2016-12-01,14:50:00,2.58
2016-12-01,15:00:00,2.57
2016-12-01,15:10:00,2.56
2016-12-01,15:20:00,2.55
2016-12-01,15:30:00,2.55
2016-12-01,15:40:00,2.54
2016-12-01,15:50:00,2.52
2016-12-01,16:00:00,2.52
2016-12-01,16:10:00,2.51
2016-12-01,16:20:00,2.5
2016-12-01,16:30:00,2.5
2016-12-01,16:40:00,2.49
2016-12-01,16:50:00,2.48
2016-12-01,17:00:00,2.47
2016-12-01,17:10:00,2.46
2016-12-01,17:20:00,2.46
2016-12-01,17:30:00,2.45
2016-12-01,17:40:00,2.44
2016-12-01,17:50:00,2.43
2016-12-01,18:00:00,2.42
2016-12-01,18:10:00,2.41
2016-12-01,18:20:00,2.4
2016-12-01,18:30:00,2.39
2016-12-01,18:40:00,2.38
2016-12-01,18:50:00,2.37
2016-12-01,19:00:00,2.36
2016-12-01,19:10:00,2.35
2016-12-01,19:20:00,2.34
2016-12-01,19:30:00,2.33
2016-12-01,19:40:00,2.32
2016-12-01,19:50:00,2.31
2016-12-01,20:00:00,2.3
2016-12-01,20:10:00,2.29
2016-12-01,20:20:00,2.28
2016-12-01,20:30:00,2.27
2016-12-01,20:40:00,2.26
2016-12-01,20:50:00,2.25
2016-12-01,21:00:00,2.24
2016-12-01,21:10:00,2.23
2016-12-01,21:20:00,2.22
2016-12-01,21:30:00,2.21
2016-12-01,21:40:00,2.2
2016-12-01,21:50:00,2.19
2016-12-01,22:00:00,2.19
2016-12-01,22:10:00,2.18
2016-12-01,22:20:00,2.17
2016-12-01,22:30:00,2.16
2016-12-01,22:40:00,2.15
2016-12-01,22:50:00,2.15
2016-12-01,23:00:00,2.14
2016-12-01,23:10:00,2.13
2016-12-01,23:20:00,2.12
2016-12-01,23:30:00,2.11
2016-12-01,23:40:00,2.11
2016-12-01,23:50:00,2.1
2016-12-02,00:00:00,2.1
2016-12-02,00:10:00,2.09
2016-12-02,00:20:00,2.08
2016-12-02,00:30:00,2.08
2016-12-02,00:40:00,2.07
2016-12-02,00:50:00,2.07
2016-12-02,01:00:00,2.07
2016-12-02,01:10:00,2.06
2016-12-02,01:20:00,2.06
2016-12-02,01:30:00,2.06
2016-12-02,01:40:00,2.06
2016-12-02,01:50:00,2.06
2016-12-02,02:00:00,2.06
2016-12-02,02:10:00,2.06
2016-12-02,02:20:00,2.06
2016-12-02,02:30:00,2.07
2016-12-02,02:40:00,2.07
2016-12-02,02:50:00,2.07
2016-12-02,03:00:00,2.08
2016-12-02,03:10:00,2.08
2016-12-02,03:20:00,2.09
2016-12-02,03:30:00,2.1
2016-12-02,03:40:00,2.11
2016-12-02,03:50:00,2.13
2016-12-02,04:00:00,2.14
2016-12-02,04:10:00,2.15
2016-12-02,04:20:00,2.17
2016-12-02,04:30:00,2.19
2016-12-02,04:40:00,2.21
2016-12-02,04:50:00,2.23
2016-12-02,05:00:00,2.25
2016-12-02,05:10:00,2.26
2016-12-02,05:20:00,2.29
2016-12-02,05:30:00,2.3
2016-12-02,05:40:00,2.33
2016-12-02,05:50:00,2.35
2016-12-02,06:00:00,2.37
2016-12-02,06:10:00,2.39
2016-12-02,06:20:00,2.39
2016-12-02,06:30:00,2.42
2016-12-02,06:40:00,2.43
2016-12-02,06:50:00,2.45
2016-12-02,07:00:00,2.44
2016-12-02,07:10:00,2.44
2016-12-02,07:20:00,2.47
2016-12-02,07:30:00,2.47
2016-12-02,07:40:00,2.48
2016-12-02,07:50:00,2.49
2016-12-02,08:00:00,2.51
2016-12-02,08:10:00,2.51
2016-12-02,08:20:00,2.52
2016-12-02,08:30:00,2.52
2016-12-02,08:40:00,2.53
2016-12-02,08:50:00,2.55
2016-12-02,09:00:00,2.56
2016-12-02,09:10:00,2.58
2016-12-02,09:20:00,2.58
2016-12-02,09:30:00,2.58
2016-12-02,09:40:00,2.59
2016-12-02,09:50:00,2.59
2016-12-02,10:00:00,2.6
2016-12-02,10:10:00,2.6
2016-12-02,10:20:00,2.61
2016-12-02,10:30:00,2.61
2016-12-02,10:40:00,2.62
2016-12-02,10:50:00,2.62
2016-12-02,11:00:00,2.63
2016-12-02,11:10:00,2.65
2016-12-02,11:20:00,2.67
2016-12-02,11:30:00,2.68
2016-12-02,11:40:00,2.7
2016-12-02,11:50:00,2.72
2016-12-02,12:00:00,2.73
2016-12-02,12:10:00,2.76
2016-12-02,12:20:00,2.8
2016-12-02,12:30:00,2.83
2016-12-02,12:40:00,2.86
2016-12-02,12:50:00,2.89
2016-12-02,13:00:00,2.93
2016-12-02,13:10:00,2.96
2016-12-02,13:20:00,3
2016-12-02,13:30:00,3.03
2016-12-02,13:40:00,3.08
2016-12-02,13:50:00,3.12
2016-12-02,14:00:00,3.17
2016-12-02,14:10:00,3.22
2016-12-02,14:20:00,3.27
2016-12-02,14:30:00,3.32
2016-12-02,14:40:00,3.37
2016-12-02,14:50:00,3.43
2016-12-02,15:00:00,3.48
2016-12-02,15:10:00,3.53
2016-12-02,15:20:00,3.58
2016-12-02,15:30:00,3.63
2016-12-02,15:40:00,3.69
2016-12-02,15:50:00,3.73
2016-12-02,16:00:00,3.78
2016-12-02,16:10:00,3.82
2016-12-02,16:20:00,3.88
2016-12-02,16:30:00,3.91
2016-12-02,16:40:00,3.95
2016-12-02,16:50:00,3.99
2016-12-02,17:00:00,4.04
2016-12-02,17:10:00,4.08
2016-12-02,17:20:00,4.13
2016-12-02,17:30:00,4.17
2016-12-02,17:40:00,4.21
2016-12-02,17:50:00,4.25
2016-12-02,18:00:00,4.29
2016-12-02,18:10:00,4.34
2016-12-02,18:20:00,4.37
2016-12-02,18:30:00,4.42
2016-12-02,18:40:00,4.46
2016-12-02,18:50:00,4.5
2016-12-02,19:00:00,4.54
2016-12-02,19:10:00,4.58
2016-12-02,19:20:00,4.61
2016-12-02,19:30:00,4.64
2016-12-02,19:40:00,4.68
2016-12-02,19:50:00,4.71
2016-12-02,20:00:00,4.76
2016-12-02,20:10:00,4.8
2016-12-02,20:20:00,4.83
2016-12-02,20:30:00,4.86
2016-12-02,20:40:00,4.88
2016-12-02,20:50:00,4.92
2016-12-02,21:00:00,4.94
2016-12-02,21:10:00,4.98
2016-12-02,21:20:00,5
2016-12-02,21:30:00,5.03
2016-12-02,21:40:00,5.08
2016-12-02,21:50:00,5.11
2016-12-02,22:00:00,5.14
2016-12-02,22:10:00,5.17
2016-12-02,22:20:00,5.19
2016-12-02,22:30:00,5.22
2016-12-02,22:40:00,5.24
2016-12-02,22:50:00,5.27
2016-12-02,23:00:00,5.3
2016-12-02,23:10:00,5.31
2016-12-02,23:20:00,5.34
2016-12-02,23:30:00,5.37
2016-12-02,23:40:00,5.39
2016-12-02,23:50:00,5.41
2016-12-03,00:00:00,5.42
2016-12-03,00:10:00,5.45
2016-12-03,00:20:00,5.48
2016-12-03,00:30:00,5.51
2016-12-03,00:40:00,5.54
2016-12-03,00:50:00,5.56
2016-12-03,01:00:00,5.59
2016-12-03,01:10:00,5.61
2016-12-03,01:20:00,5.63
2016-12-03,01:30:00,5.65
2016-12-03,01:40:00,5.67
2016-12-03,01:50:00,5.7
2016-12-03,02:00:00,5.72
2016-12-03,02:10:00,5.74
2016-12-03,02:20:00,5.77
2016-12-03,02:30:00,5.79
2016-12-03,02:40:00,5.8
2016-12-03,02:50:00,5.82
2016-12-03,03:00:00,5.84
2016-12-03,03:10:00,5.87
2016-12-03,03:20:00,5.88
2016-12-03,03:30:00,5.91
2016-12-03,03:40:00,5.92
2016-12-03,03:50:00,5.95
2016-12-03,04:00:00,5.96
2016-12-03,04:10:00,5.98
2016-12-03,04:20:00,6
2016-12-03,04:30:00,6.02
2016-12-03,04:40:00,6.04
2016-12-03,04:50:00,6.05
2016-12-03,05:00:00,6.06
2016-12-03,05:10:00,6.08
2016-12-03,05:20:00,6.11
2016-12-03,05:30:00,6.12
2016-12-03,05:40:00,6.14
2016-12-03,05:50:00,6.15
2016-12-03,06:00:00,6.16
2016-12-03,06:10:00,6.18
2016-12-03,06:20:00,6.19
2016-12-03,06:30:00,6.21
2016-12-03,06:40:00,6.22
2016-12-03,06:50:00,6.23
2016-12-03,07:00:00,6.24
2016-12-03,07:10:00,6.25
2016-12-03,07:20:00,6.26
2016-12-03,07:30:00,6.27
2016-12-03,07:40:00,6.27
2016-12-03,07:50:00,6.29
2016-12-03,08:00:00,6.3
2016-12-03,08:10:00,6.31
2016-12-03,08:20:00,6.31
2016-12-03,08:30:00,6.32
2016-12-03,08:40:00,6.34
2016-12-03,08:50:00,6.34
2016-12-03,09:00:00,6.35
2016-12-03,09:10:00,6.36
2016-12-03,09:20:00,6.36
2016-12-03,09:30:00,6.38
2016-12-03,09:40:00,6.38
2016-12-03,09:50:00,6.39
2016-12-03,10:00:00,6.4
2016-12-03,10:10:00,6.41
2016-12-03,10:20:00,6.41
2016-12-03,10:30:00,6.41
2016-12-03,10:40:00,6.42
2016-12-03,10:50:00,6.42
2016-12-03,11:00:00,6.44
2016-12-03,11:10:00,6.44
2016-12-03,11:20:00,6.45
2016-12-03,11:30:00,6.46
2016-12-03,11:40:00,6.46
2016-12-03,11:50:00,6.47
2016-12-03,12:00:00,6.47
2016-12-03,12:10:00,6.48
2016-12-03,12:20:00,6.48
2016-12-03,12:30:00,6.49
2016-12-03,12:40:00,6.49
2016-12-03,12:50:00,6.49
2016-12-03,13:00:00,6.49
2016-12-03,13:10:00,6.5
2016-12-03,13:20:00,6.52
2016-12-03,13:30:00,6.52
2016-12-03,13:40:00,6.53
2016-12-03,13:50:00,6.54
2016-12-03,14:00:00,6.54
2016-12-03,14:10:00,6.55
2016-12-03,14:20:00,6.55
2016-12-03,14:30:00,6.56
2016-12-03,14:40:00,6.56
2016-12-03,14:50:00,6.58
2016-12-03,15:00:00,6.57
2016-12-03,15:10:00,6.59
2016-12-03,15:20:00,6.59
2016-12-03,15:30:00,6.59
2016-12-03,15:40:00,6.61
2016-12-03,15:50:00,6.62
2016-12-03,16:00:00,6.63
2016-12-03,16:10:00,6.64
2016-12-03,16:20:00,6.64
2016-12-03,16:30:00,6.65
2016-12-03,16:40:00,6.66
2016-12-03,16:50:00,6.66
2016-12-03,17:00:00,6.67
2016-12-03,17:10:00,6.68
2016-12-03,17:20:00,6.66
2016-12-03,17:30:00,6.69
2016-12-03,17:40:00,6.7
2016-12-03,17:50:00,6.72
2016-12-03,18:00:00,6.74
2016-12-03,18:10:00,6.76
2016-12-03,18:20:00,6.78
2016-12-03,18:30:00,6.79
2016-12-03,18:40:00,6.8
2016-12-03,18:50:00,6.81
2016-12-03,19:00:00,6.83
2016-12-03,19:10:00,6.84
2016-12-03,19:20:00,6.85
2016-12-03,19:30:00,6.86
2016-12-03,19:40:00,6.87
2016-12-03,19:50:00,6.89
2016-12-03,20:00:00,6.9
2016-12-03,20:10:00,6.91
2016-12-03,20:20:00,6.92
2016-12-03,20:30:00,6.93
2016-12-03,20:40:00,6.94
2016-12-03,20:50:00,6.96
2016-12-03,21:00:00,6.97
2016-12-03,21:10:00,6.98
2016-12-03,21:20:00,6.99
2016-12-03,21:30:00,7.01
2016-12-03,21:40:00,7.02
2016-12-03,21:50:00,7.03
2016-12-03,22:00:00,7.04
2016-12-03,22:10:00,7.06
2016-12-03,22:20:00,7.08
2016-12-03,22:30:00,7.09
2016-12-03,22:40:00,7.12
2016-12-03,22:50:00,7.13
2016-12-03,23:00:00,7.14
2016-12-03,23:10:00,7.16
2016-12-03,23:20:00,7.18
2016-12-03,23:30:00,7.19
2016-12-03,23:40:00,7.21
2016-12-03,23:50:00,7.23
2016-12-04,00:00:00,7.25
2016-12-04,00:10:00,7.26
2016-12-04,00:20:00,7.28
2016-12-04,00:30:00,7.29
2016-12-04,00:40:00,7.31
2016-12-04,00:50:00,7.33
2016-12-04,01:00:00,7.35
2016-12-04,01:10:00,7.36
2016-12-04,01:20:00,7.38
2016-12-04,01:30:00,7.39
2016-12-04,01:40:00,7.41
2016-12-04,01:50:00,7.42
2016-12-04,02:00:00,7.44
2016-12-04,02:10:00,7.45
2016-12-04,02:20:00,7.46
2016-12-04,02:30:00,7.47
2016-12-04,02:40:00,7.49
2016-12-04,02:50:00,7.5
2016-12-04,03:00:00,7.51
2016-12-04,03:10:00,7.52
2016-12-04,03:20:00,7.53
2016-12-04,03:30:00,7.54
2016-12-04,03:40:00,7.55
2016-12-04,03:50:00,7.56
2016-12-04,04:00:00,7.57
2016-12-04,04:10:00,7.58
2016-12-04,04:20:00,7.59
2016-12-04,04:30:00,7.59
2016-12-04,04:40:00,7.6
2016-12-04,04:50:00,7.61
2016-12-04,05:00:00,7.61
2016-12-04,05:10:00,7.62
2016-12-04,05:20:00,7.62
2016-12-04,05:30:00,7.62
2016-12-04,05:40:00,7.63
2016-12-04,05:50:00,7.63
2016-12-04,06:00:00,7.64
2016-12-04,06:10:00,7.64
2016-12-04,06:20:00,7.64
2016-12-04,06:30:00,7.64
2016-12-04,06:40:00,7.64
2016-12-04,06:50:00,7.64
2016-12-04,07:00:00,7.65
2016-12-04,07:10:00,7.65
2016-12-04,07:20:00,7.65
2016-12-04,07:30:00,7.64
2016-12-04,07:40:00,7.64
2016-12-04,07:50:00,7.64
2016-12-04,08:00:00,7.64
2016-12-04,08:10:00,7.64
2016-12-04,08:20:00,7.63
2016-12-04,08:30:00,7.63
2016-12-04,08:40:00,7.63
2016-12-04,08:50:00,7.62
2016-12-04,09:00:00,7.61
2016-12-04,09:10:00,7.62
2016-12-04,09:20:00,7.61
2016-12-04,09:30:00,7.6
2016-12-04,09:40:00,7.59
2016-12-04,09:50:00,7.59
2016-12-04,10:00:00,7.58
2016-12-04,10:10:00,7.58
2016-12-04,10:20:00,7.57
2016-12-04,10:30:00,7.56
2016-12-04,10:40:00,7.55
2016-12-04,10:50:00,7.55
2016-12-04,11:00:00,7.54
2016-12-04,11:10:00,7.53
2016-12-04,11:20:00,7.52
2016-12-04,11:30:00,7.51
2016-12-04,11:40:00,7.5
2016-12-04,11:50:00,7.49
2016-12-04,12:00:00,7.48
2016-12-04,12:10:00,7.47
2016-12-04,12:20:00,7.46
2016-12-04,12:30:00,7.45
2016-12-04,12:40:00,7.45
2016-12-04,12:50:00,7.43
2016-12-04,13:00:00,7.42
2016-12-04,13:10:00,7.41
2016-12-04,13:20:00,7.4
2016-12-04,13:30:00,7.39
2016-12-04,13:40:00,7.37
2016-12-04,13:50:00,7.36
2016-12-04,14:00:00,7.35
2016-12-04,14:10:00,7.34
2016-12-04,14:20:00,7.32
2016-12-04,14:30:00,7.31
2016-12-04,14:40:00,7.3
2016-12-04,14:50:00,7.28
2016-12-04,15:00:00,7.27
2016-12-04,15:10:00,7.26
2016-12-04,15:20:00,7.24
2016-12-04,15:30:00,7.23
2016-12-04,15:40:00,7.22
2016-12-04,15:50:00,7.2
2016-12-04,16:00:00,7.18
2016-12-04,16:10:00,7.17
2016-12-04,16:20:00,7.16
2016-12-04,16:30:00,7.14
2016-12-04,16:40:00,7.13
2016-12-04,16:50:00,7.11
2016-12-04,17:00:00,7.09
2016-12-04,17:10:00,7.08
2016-12-04,17:20:00,7.06
2016-12-04,17:30:00,7.05
2016-12-04,17:40:00,7.03
2016-12-04,17:50:00,7.02
2016-12-04,18:00:00,7
2016-12-04,18:10:00,6.98
2016-12-04,18:20:00,6.97
2016-12-04,18:30:00,6.95
2016-12-04,18:40:00,6.94
2016-12-04,18:50:00,6.92
2016-12-04,19:00:00,6.9
2016-12-04,19:10:00,6.89
2016-12-04,19:20:00,6.87
2016-12-04,19:30:00,6.85
2016-12-04,19:40:00,6.83
2016-12-04,19:50:00,6.82
2016-12-04,20:00:00,6.8
2016-12-04,20:10:00,6.78
2016-12-04,20:20:00,6.76
2016-12-04,20:30:00,6.75
2016-12-04,20:40:00,6.73
2016-12-04,20:50:00,6.71
2016-12-04,21:00:00,6.69
2016-12-04,21:10:00,6.67
2016-12-04,21:20:00,6.65
2016-12-04,21:30:00,6.64
2016-12-04,21:40:00,6.62
2016-12-04,21:50:00,6.6
2016-12-04,22:00:00,6.58
2016-12-04,22:10:00,6.56
2016-12-04,22:20:00,6.54
2016-12-04,22:30:00,6.52
2016-12-04,22:40:00,6.5
2016-12-04,22:50:00,6.49
2016-12-04,23:00:00,6.46
2016-12-04,23:10:00,6.45
2016-12-04,23:20:00,6.42
2016-12-04,23:30:00,6.4
2016-12-04,23:40:00,6.39
2016-12-04,23:50:00,6.36
2016-12-05,00:00:00,6.34
2016-12-05,00:10:00,6.33
2016-12-05,00:20:00,6.31
2016-12-05,00:30:00,6.29
2016-12-05,00:40:00,6.27
2016-12-05,00:50:00,6.24
2016-12-05,01:00:00,6.22
2016-12-05,01:10:00,6.2
2016-12-05,01:20:00,6.18
2016-12-05,01:30:00,6.16
2016-12-05,01:40:00,6.14
2016-12-05,01:50:00,6.12
2016-12-05,02:00:00,6.1
2016-12-05,02:10:00,6.08
2016-12-05,02:20:00,6.06
2016-12-05,02:30:00,6.04
2016-12-05,02:40:00,6.02
2016-12-05,02:50:00,6
2016-12-05,03:00:00,5.98
2016-12-05,03:10:00,5.96
2016-12-05,03:20:00,5.94
2016-12-05,03:30:00,5.92
2016-12-05,03:40:00,5.9
2016-12-05,03:50:00,5.87
2016-12-05,04:00:00,5.85
2016-12-05,04:10:00,5.83
2016-12-05,04:20:00,5.81
2016-12-05,04:30:00,5.79
2016-12-05,04:40:00,5.77
2016-12-05,04:50:00,5.75
2016-12-05,05:00:00,5.73
2016-12-05,05:10:00,5.71
2016-12-05,05:20:00,5.69
2016-12-05,05:30:00,5.68
2016-12-05,05:40:00,5.65
2016-12-05,05:50:00,5.63
2016-12-05,06:00:00,5.61
2016-12-05,06:10:00,5.59
2016-12-05,06:20:00,5.57
2016-12-05,06:30:00,5.55
2016-12-05,06:40:00,5.53
2016-12-05,06:50:00,5.51
2016-12-05,07:00:00,5.5
2016-12-05,07:10:00,5.48
2016-12-05,07:20:00,5.45
2016-12-05,07:30:00,5.43
2016-12-05,07:40:00,5.42
2016-12-05,07:50:00,5.41
2016-12-05,08:00:00,5.39
2016-12-05,08:10:00,5.37
2016-12-05,08:20:00,5.35
2016-12-05,08:30:00,5.33
2016-12-05,08:40:00,5.32
2016-12-05,08:50:00,5.29
2016-12-05,09:00:00,5.27
2016-12-05,09:10:00,5.26
2016-12-05,09:20:00,5.24
2016-12-05,09:30:00,5.23
2016-12-05,09:40:00,5.2
2016-12-05,09:50:00,5.2
2016-12-05,10:00:00,5.19
2016-12-05,10:10:00,5.17
2016-12-05,10:20:00,5.16
2016-12-05,10:30:00,5.14
2016-12-05,10:40:00,5.13
2016-12-05,10:50:00,5.11
2016-12-05,11:00:00,5.1
2016-12-05,11:10:00,5.09
2016-12-05,11:20:00,5.07
2016-12-05,11:30:00,5.06
2016-12-05,11:40:00,5.05
2016-12-05,11:50:00,5.04
2016-12-05,12:00:00,5.03
2016-12-05,12:10:00,5.01
2016-12-05,12:20:00,5
2016-12-05,12:30:00,4.99
2016-12-05,12:40:00,4.98
2016-12-05,12:50:00,4.97
2016-12-05,13:00:00,4.96
2016-12-05,13:10:00,4.95
2016-12-05,13:20:00,4.94
2016-12-05,13:30:00,4.93
2016-12-05,13:40:00,4.92
2016-12-05,13:50:00,4.91
2016-12-05,14:00:00,4.9
2016-12-05,14:10:00,4.89
2016-12-05,14:20:00,4.89
2016-12-05,14:30:00,4.88
2016-12-05,14:40:00,4.87
2016-12-05,14:50:00,4.86
2016-12-05,15:00:00,4.85
2016-12-05,15:10:00,4.85
2016-12-05,15:20:00,4.84
2016-12-05,15:30:00,4.84
2016-12-05,15:40:00,4.83
2016-12-05,15:50:00,4.83
2016-12-05,16:00:00,4.82
2016-12-05,16:10:00,4.82
2016-12-05,16:20:00,4.81
2016-12-05,16:30:00,4.8
2016-12-05,16:40:00,4.8
2016-12-05,16:50:00,4.79
2016-12-05,17:00:00,4.79
2016-12-05,17:10:00,4.78
2016-12-05,17:20:00,4.78
2016-12-05,17:30:00,4.77
2016-12-05,17:40:00,4.77
2016-12-05,17:50:00,4.76
2016-12-05,18:00:00,4.76
2016-12-05,18:10:00,4.76
2016-12-05,18:20:00,4.75
2016-12-05,18:30:00,4.75
2016-12-05,18:40:00,4.75
2016-12-05,18:50:00,4.74
2016-12-05,19:00:00,4.74
2016-12-05,19:10:00,4.74
2016-12-05,19:20:00,4.73
2016-12-05,19:30:00,4.73
2016-12-05,19:40:00,4.73
2016-12-05,19:50:00,4.72
2016-12-05,20:00:00,4.72
2016-12-05,20:10:00,4.72
2016-12-05,20:20:00,4.72
2016-12-05,20:30:00,4.71
2016-12-05,20:40:00,4.71
2016-12-05,20:50:00,4.71
2016-12-05,21:00:00,4.7
2016-12-05,21:10:00,4.7
2016-12-05,21:20:00,4.7
2016-12-05,21:30:00,4.69
2016-12-05,21:40:00,4.69
2016-12-05,21:50:00,4.69
2016-12-05,22:00:00,4.69
2016-12-05,22:10:00,4.68
2016-12-05,22:20:00,4.68
2016-12-05,22:30:00,4.68
2016-12-05,22:40:00,4.68
2016-12-05,22:50:00,4.67
2016-12-05,23:00:00,4.67
2016-12-05,23:10:00,4.67
2016-12-05,23:20:00,4.67
2016-12-05,23:30:00,4.67
2016-12-05,23:40:00,4.66
2016-12-05,23:50:00,4.66
2016-12-06,00:00:00,4.66
2016-12-06,00:10:00,4.66
2016-12-06,00:20:00,4.66
2016-12-06,00:30:00,4.65
2016-12-06,00:40:00,4.65
2016-12-06,00:50:00,4.65
2016-12-06,01:00:00,4.65
2016-12-06,01:10:00,4.64
2016-12-06,01:20:00,4.64
2016-12-06,01:30:00,4.64
2016-12-06,01:40:00,4.63
2016-12-06,01:50:00,4.63
2016-12-06,02:00:00,4.63
2016-12-06,02:10:00,4.63
2016-12-06,02:20:00,4.62
2016-12-06,02:30:00,4.62
2016-12-06,02:40:00,4.62
2016-12-06,02:50:00,4.62
2016-12-06,03:00:00,4.61
2016-12-06,03:10:00,4.61
2016-12-06,03:20:00,4.61
2016-12-06,03:30:00,4.61
2016-12-06,03:40:00,4.6
2016-12-06,03:50:00,4.6
2016-12-06,04:00:00,4.6
2016-12-06,04:10:00,4.6
2016-12-06,04:20:00,4.59
2016-12-06,04:30:00,4.59
2016-12-06,04:40:00,4.59
2016-12-06,04:50:00,4.58
2016-12-06,05:00:00,4.58
2016-12-06,05:10:00,4.58
2016-12-06,05:20:00,4.58
2016-12-06,05:30:00,4.57
2016-12-06,05:40:00,4.57
2016-12-06,05:50:00,4.57
2016-12-06,06:00:00,4.57
2016-12-06,06:10:00,4.56
2016-12-06,06:20:00,4.56
2016-12-06,06:30:00,4.56
2016-12-06,06:40:00,4.56
2016-12-06,06:50:00,4.55
2016-12-06,07:00:00,4.55
2016-12-06,07:10:00,4.55
2016-12-06,07:20:00,4.54
2016-12-06,07:30:00,4.54
2016-12-06,07:40:00,4.54
2016-12-06,07:50:00,4.54
2016-12-06,08:00:00,4.53
2016-12-06,08:10:00,4.53
2016-12-06,08:20:00,4.53
2016-12-06,08:30:00,4.52
2016-12-06,08:40:00,4.52
2016-12-06,08:50:00,4.52
2016-12-06,09:00:00,4.51
2016-12-06,09:10:00,4.51
2016-12-06,09:20:00,4.51
2016-12-06,09:30:00,4.5
2016-12-06,09:40:00,4.5
2016-12-06,09:50:00,4.5
2016-12-06,10:00:00,4.49
2016-12-06,10:10:00,4.49
2016-12-06,10:20:00,4.48
2016-12-06,10:30:00,4.48
2016-12-06,10:40:00,4.48
2016-12-06,10:50:00,4.48
2016-12-06,11:00:00,4.47
2016-12-06,11:10:00,4.47
2016-12-06,11:20:00,4.46
2016-12-06,11:30:00,4.47
2016-12-06,11:40:00,4.46
2016-12-06,11:50:00,4.44
2016-12-06,12:00:00,4.45
2016-12-06,12:10:00,4.46
2016-12-06,12:20:00,4.45
2016-12-06,12:30:00,4.44
2016-12-06,12:40:00,4.44
2016-12-06,12:50:00,4.43
2016-12-06,13:00:00,4.44
2016-12-06,13:10:00,4.43
2016-12-06,13:20:00,4.41
2016-12-06,13:30:00,4.4
2016-12-06,13:40:00,4.4
2016-12-06,13:50:00,4.41
2016-12-06,14:00:00,4.41
2016-12-06,14:10:00,4.41
2016-12-06,14:20:00,4.42
2016-12-06,14:30:00,4.4
2016-12-06,14:40:00,4.41
2016-12-06,14:50:00,4.41
2016-12-06,15:00:00,4.4
2016-12-06,15:10:00,4.4
2016-12-06,15:20:00,4.4
2016-12-06,15:30:00,4.39
2016-12-06,15:40:00,4.39
2016-12-06,15:50:00,4.39
2016-12-06,16:00:00,4.39
2016-12-06,16:10:00,4.38
2016-12-06,16:20:00,4.38
2016-12-06,16:30:00,4.38
2016-12-06,16:40:00,4.38
2016-12-06,16:50:00,4.38
2016-12-06,17:00:00,4.37
2016-12-06,17:10:00,4.37
2016-12-06,17:20:00,4.37
2016-12-06,17:30:00,4.36
2016-12-06,17:40:00,4.36
2016-12-06,17:50:00,4.36
2016-12-06,18:00:00,4.36
2016-12-06,18:10:00,4.36
2016-12-06,18:20:00,4.36
2016-12-06,18:30:00,4.36
2016-12-06,18:40:00,4.35
2016-12-06,18:50:00,4.36
2016-12-06,19:00:00,4.35
2016-12-06,19:10:00,4.35
2016-12-06,19:20:00,4.35
2016-12-06,19:30:00,4.35
2016-12-06,19:40:00,4.34
2016-12-06,19:50:00,4.34
2016-12-06,20:00:00,4.34
2016-12-06,20:10:00,4.34
2016-12-06,20:20:00,4.34
2016-12-06,20:30:00,4.33
2016-12-06,20:40:00,4.33
2016-12-06,20:50:00,4.33
2016-12-06,21:00:00,4.33
2016-12-06,21:10:00,4.32
2016-12-06,21:20:00,4.32
2016-12-06,21:30:00,4.32
2016-12-06,21:40:00,4.31
2016-12-06,21:50:00,4.31
2016-12-06,22:00:00,4.31
2016-12-06,22:10:00,4.3
2016-12-06,22:20:00,4.3
2016-12-06,22:30:00,4.3
2016-12-06,22:40:00,4.29
2016-12-06,22:50:00,4.29
2016-12-06,23:00:00,4.28
2016-12-06,23:10:00,4.28
2016-12-06,23:20:00,4.28
2016-12-06,23:30:00,4.27
2016-12-06,23:40:00,4.27
2016-12-06,23:50:00,4.26
2016-12-07,00:00:00,4.25
2016-12-07,00:10:00,4.25
2016-12-07,00:20:00,4.25
2016-12-07,00:30:00,4.24
2016-12-07,00:40:00,4.24
2016-12-07,00:50:00,4.23
2016-12-07,01:00:00,4.22
2016-12-07,01:10:00,4.22
2016-12-07,01:20:00,4.21
2016-12-07,01:30:00,4.21
2016-12-07,01:40:00,4.2
2016-12-07,01:50:00,4.2
2016-12-07,02:00:00,4.19
2016-12-07,02:10:00,4.19
2016-12-07,02:20:00,4.18
2016-12-07,02:30:00,4.17
2016-12-07,02:40:00,4.17
2016-12-07,02:50:00,4.16
2016-12-07,03:00:00,4.16
2016-12-07,03:10:00,4.15
2016-12-07,03:20:00,4.15
2016-12-07,03:30:00,4.14
2016-12-07,03:40:00,4.13
2016-12-07,03:50:00,4.13
2016-12-07,04:00:00,4.12
2016-12-07,04:10:00,4.12
2016-12-07,04:20:00,4.11
2016-12-07,04:30:00,4.11
2016-12-07,04:40:00,4.1
2016-12-07,04:50:00,4.09
2016-12-07,05:00:00,4.09
2016-12-07,05:10:00,4.08
2016-12-07,05:20:00,4.07
2016-12-07,05:30:00,4.07
2016-12-07,05:40:00,4.07
2016-12-07,05:50:00,4.06
2016-12-07,06:00:00,4.06
2016-12-07,06:10:00,4.05
2016-12-07,06:20:00,4.04
2016-12-07,06:30:00,4.04
2016-12-07,06:40:00,4.03
2016-12-07,06:50:00,4.03
2016-12-07,07:00:00,4.02
2016-12-07,07:10:00,4.02
2016-12-07,07:20:00,4.01
2016-12-07,07:30:00,4
2016-12-07,07:40:00,4
2016-12-07,07:50:00,4
2016-12-07,08:00:00,3.99
2016-12-07,08:10:00,3.98
2016-12-07,08:20:00,3.98
2016-12-07,08:30:00,3.97
2016-12-07,08:40:00,3.96
2016-12-07,08:50:00,3.96
2016-12-07,09:00:00,3.96
2016-12-07,09:10:00,3.93
2016-12-07,09:20:00,3.94
2016-12-07,09:30:00,3.94
2016-12-07,09:40:00,3.94
2016-12-07,09:50:00,3.93
2016-12-07,10:00:00,3.9
2016-12-07,10:10:00,3.91
2016-12-07,10:20:00,3.91
2016-12-07,10:30:00,3.89
2016-12-07,10:40:00,3.9
2016-12-07,10:50:00,3.9
2016-12-07,11:00:00,3.89
2016-12-07,11:10:00,3.89
2016-12-07,11:20:00,3.87
2016-12-07,11:30:00,3.87
2016-12-07,11:40:00,3.87
2016-12-07,11:50:00,3.86
2016-12-07,12:00:00,3.84
2016-12-07,12:10:00,3.85
2016-12-07,12:20:00,3.85
2016-12-07,12:30:00,3.84
2016-12-07,12:40:00,3.84
2016-12-07,12:50:00,3.81
2016-12-07,13:00:00,3.82
2016-12-07,13:10:00,3.81
2016-12-07,13:20:00,3.8
2016-12-07,13:30:00,3.8
2016-12-07,13:40:00,3.79
2016-12-07,13:50:00,3.79
2016-12-07,14:00:00,3.79
2016-12-07,14:10:00,3.78
2016-12-07,14:20:00,3.77
2016-12-07,14:30:00,3.77
2016-12-07,14:40:00,3.76
2016-12-07,14:50:00,3.76
2016-12-07,15:00:00,3.75
2016-12-07,15:10:00,3.75
2016-12-07,15:20:00,3.75
2016-12-07,15:30:00,3.75
2016-12-07,15:40:00,3.72
2016-12-07,15:50:00,3.74
2016-12-07,16:00:00,3.73
2016-12-07,16:10:00,3.73
2016-12-07,16:20:00,3.72